CAPE
12 7 6 5 8 15 23 16 15 7 5 0 2 4 15 7 25 8 7 9 7 6 4 0 0 0 1 1 1 7 0 5 5 6 8 6 7 6 3 0 1 3 4 3 2 2 0 0 0 0 2 8 5 5
1 9 9 13 7 7 2 34 10 4 4 1 0 0 3 4 27 18 11 4 23 5 14 0 0 0 0 0 8 4 3 0 11 5 7 9 9 5 6 0 0 0 1 2 6 8 1 10 14 6 6 4 3 2
7 8 8 23 21 7 3 9 13 8 7 4 1 9 9 3 19 4 14 7 9 5 2 2 0 0 0 0 0 7 5 4 10 1 5 1 1 9 6 4 0 3 1 1 4 2 0 0 0 3 1 3 6 0
15 15 16 18 15 0 36 15 38 12 2 7 1 4 17 5 12 23 4 10 3 5 1 0 0 0 0 0 0 0 0 9 15 8 10 8 9 13 11 0 0 1 0 0 2 1 0 2 3 2 3 2 1 0
13 9 3 11 20 0 16 36 38 9 6 2 0 2 12 17 12 28 35 17 7 11 5 3 0 0 0 0 0 0 0 3 1 8 7 4 5 6 5 6 2 3 0 0 0 0 0 1 1 2 0 1 1 0
14 9 7 4 16 0 2 17 12 2 5 0 2 14 11 8 10 24 6 12 11 9 15 2 1 0 0 0 0 2 4 7 0 2 0 7 0 5 8 9 1 0 1 1 1 0 1 1 2 1 2 2 2 2
8 14 12 9 14 0 17 0 2 3 1 0 21 3 11 10 9 12 9 5 2 14 0 1 4 0 1 1 3 3 7 1 4 5 9 7 5 17 7 2 1 1 1 0 1 0 0 2 2 1 1 1 2 0
1 15 13 15 13 1 40 14 6 8 3 2 0 9 10 21 28 2 5 2 11 14 7 0 2 3 3 3 5 1 1 3 4 13 13 9 9 6 11 2 1 1 2 0 0 0 1 1 1 2 1 4 1 1
5 4 9 24 3 13 34 35 30 9 8 3 9 8 16 2 8 7 4 0 3 1 8 2 5 8 4 3 4 6 1 1 6 4 8 12 8 14 2 1 2 2 0 0 0 0 0 0 0 0 0 0 0 0
24 15 26 18 1 20 32 29 27 8 3 6 22 1 0 0 0 14 22 3 2 2 1 1 6 0 1 5 1 1 2 3 5 1 8 2 12 2 2 1 1 0 0 0 0 0 0 0 0 0 0 1 2 1
23 12 7 18 14 9 4 16 16 16 11 11 5 0 19 3 14 1 1 1 2 1 1 0 0 0 3 2 2 19 5 0 3 4 5 9 1 2 0 0 0 0 0 0 0 0 0 0 0 0 0 0 0 0
11 3 8 6 2 0 8 2 3 15 4 0 4 2 4 13 1 0 0 1 3 0 4 0 1 2 12 16 11 4 0 1 1 3 3 3 2 1 0 0 0 0 0 0 0 0 0 0 0 0 0 1 2 2
5 18 33 7 10 13 6 15 9 0 0 10 24 0 0 0 0 0 0 2 3 0 0 1 1 3 5 2 6 0 0 2 2 1 1 1 2 1 0 0 0 0 0 0 0 0 0 0 0 1 1 1 1 1
11 11 16 24 15 13 23 19 0 1 0 0 0 0 0 0 0 0 0 24 0 1 2 3 2 2 2 1 0 0 0 0 2 0 2 1 1 1 0 1 0 1 0 0 0 0 0 0 0 1 1 0 1 1
15 27 20 5 3 6 13 11 7 0 0 0 1 0 0 1 2 1 1 2 1 1 4 4 2 2 2 1 0 0 0 0 0 1 1 1 1 0 0 0 0 0 0 0 0 0 0 0 0 0 1 0 0 0
11 11 8 4 4 9 13 3 0 0 1 0 0 2 3 1 2 1 1 2 2 1 0 0 1 0 1 1 0 0 0 0 1 1 1 0 1 1 1 1 1 0 0 0 0 0 0 0 0 0 0 1 0 0
0 5 0 0 3 15 2 0 1 1 1 0 2 2 2 3 1 3 4 0 1 0 2 2 2 0 0 0 0 0 0 2 2 1 0 0 0 0 0 1 1 1 0 0 0 0 0 0 0 0 0 0 0 0
2 0 9 13 15 1 0 0 1 0 0 1 1 2 4 5 6 4 5 3 3 3 2 0 0 0 0 0 0 3 2 1 1 0 0 0 0 0 0 0 1 0 0 0 0 0 0 0 0 0 0 0 0 0
5 1 24 4 1 0 2 1 0 0 1 1 2 1 2 3 2 2 2 2 2 2 2 1 0 0 1 1 1 2 1 1 1 0 1 1 1 0 0 0 0 0 0 0 0 0 0 0 0 0 0 0 0 0
17 7 0 1 0 1 0 0 0 0 1 1 0 1 1 1 1 2 2 2 1 1 0 0 2 2 1 1 1 1 1 2 1 0 0 1 0 0 0 0 0 0 0 0 0 0 0 0 0 0 0 0 1 0
10 11 2 0 0 0 0 0 0 0 0 1 0 0 0 0 0 0 0 0 0 2 1 0 0 0 0 1 1 1 1 1 0 0 0 0 1 1 1 0 0 0 0 0 0 0 0 0 0 0 0 0 0 0
1 0 0 0 0 0 0 0 0 0 0 0 0 0 0 0 0 1 0 0 1 0 0 0 0 0 1 0 1 0 1 1 1 0 0 0 2 1 1 1 1 1 1 1 0 0 0 0 0 0 1 0 0 0
0 0 0 0 0 0 0 1 0 0 0 1 0 0 0 0 0 0 0 0 0 2 1 0 1 1 0 0 0 0 0 0 0 0 0 0 0 1 1 1 1 1 1 0 0 0 0 0 0 0 0 0 0 0
0 0 0 0 0 0 0 1 0 0 0 0 0 0 0 0 0 0 0 0 0 2 1 1 0 0 0 0 0 0 0 0 0 0 0 1 0 0 1 1 0 1 0 0 0 0 0 0 0 0 0 0 0 0
0 0 0 0 0 0 0 0 0 0 0 0 0 0 0 0 0 0 0 0 0 0 0 0 0 0 0 0 0 0 0 0 0 0 0 0 0 1 1 0 0 0 1 1 1 1 0 0 0 0 0 0 0 0
0 0 0 0 0 0 0 0 0 0 0 0 0 0 0 0 0 0 0 0 0 0 0 0 0 0 0 0 0 0 0 0 0 0 0 0 0 0 0 0 1 0 0 0 1 1 0 0 0 0 0 0 0 0
0 0 0 0 0 0 0 0 0 0 0 0 0 0 0 0 0 0 0 0 0 0 0 0 0 0 0 0 0 0 0 0 0 0 0 0 0 0 0 0 0 0 0 0 0 0 0 0 0 0 0 0 0 0
0 0 0 0 0 0 0 0 0 0 0 0 0 0 0 0 0 0 0 0 0 0 0 0 0 0 0 0 0 0 0 0 0 0 0 0 0 0 0 0 0 0 0 0 0 1 0 0 0 0 0 0 0 0
0 0 0 0 0 0 0 0 0 0 0 0 0 0 0 0 0 0 0 0 0 0 0 0 0 0 0 0 0 0 0 0 0 0 0 0 0 0 0 0 0 0 0 0 0 0 0 0 0 0 0 0 0 0
0 0 0 0 0 0 0 0 0 0 0 0 0 0 0 0 0 0 0 0 0 0 0 0 0 0 0 0 0 0 0 0 0 0 0 0 0 0 0 0 0 0 0 0 0 0 0 0 0 0 0 0 0 0
0 0 0 0 0 0 0 0 0 0 0 0 0 0 0 0 0 0 0 0 0 0 0 0 0 0 0 0 0 0 0 0 0 0 0 0 0 0 0 0 0 0 0 0 0 0 0 0 0 0 0 0 0 0
0 0 0 0 0 0 0 0 0 0 0 0 0 0 0 0 0 0 0 0 0 0 0 0 0 0 0 0 0 0 0 0 0 0 0 0 0 0 0 0 0 0 0 0 0 0 0 0 0 0 0 0 0 0
0 0 0 0 0 0 0 0 0 0 0 0 0 0 0 0 0 0 0 0 0 0 0 0 0 0 0 0 0 0 0 0 0 0 0 0 0 0 0 0 0 0 0 0 0 0 0 0 0 0 0 0 0 0
CIN
-0 -0 -1 -1 -2 -1 -0 -1 -1 -0 -2 -3 -1 -2 -4 -8 -1 -1 -1 -1 -1 -0 -2 -0 -0 -0 -1 -0 -1 -1 -0 -1 -1 -0 -2 -1 -1 -1 -1 -0 -0 -1 -1 -2 -1 -0 -0 -0 -0 -2 -0 -0 -0 -1
-0 -1 -0 -1 -0 -1 -0 -0 -0 -1 -2 -4 -0 -0 -7 -10 -0 -1 -0 -0 -0 -1 -1 -0 -0 -0 -0 -0 -2 -2 -0 -0 -0 -1 -2 -0 -0 -0 -1 -0 -0 -1 -0 -0 -0 -2 -2 -1 -0 -0 -0 -1 -0 -0
-0 -1 -0 -1 -0 -1 -0 -0 -0 -2 -3 -6 -1 -1 -5 -11 -1 -3 -0 -5 -0 -0 -0 -0 -0 -0 -0 -0 -0 -0 -0 -1 -0 -1 -0 -0 -0 -0 -2 -2 -0 -1 -0 -0 -0 -5 -0 -0 -0 -0 -0 -0 -0 -0
-0 -0 -0 -1 -1 -1 -0 -0 -4 -1 -4 -4 -0 -3 -3 -7 -4 -0 -5 -3 -0 -0 -0 -0 -0 -0 -0 -0 -0 -0 -0 -0 -0 -3 -0 -1 -0 -0 -0 -0 -0 -0 -0 -0 -0 -0 -0 -0 -0 -0 -0 -0 -0 -0
-0 -0 -1 -0 -1 -0 -0 -0 -0 -0 -2 -1 -0 -12 -8 -0 -4 -2 -0 -0 -1 -0 -0 -0 -0 -0 -0 -0 -0 -0 -0 -0 -2 -0 -0 -0 -1 -0 -0 -0 -0 -2 -0 -0 -0 -0 -0 -0 -0 -0 -0 -0 -0 -0
-0 -0 -0 -0 -2 -0 -0 -0 -24 -0 -1 -0 -8 -1 -6 -1 -4 -0 -0 -5 -1 -0 -0 -0 -0 -0 -0 -0 -0 -0 -0 -0 -1 -0 -0 -0 -0 -1 -0 -0 -2 -0 -0 -0 -0 -0 -0 -0 -0 -0 -0 -0 -0 -0
-0 -0 -0 -0 -0 -0 -0 -0 -0 -0 -1 -0 -0 -0 -2 -1 -1 -0 -1 -7 -0 -0 -0 -0 -0 -0 -0 -0 -0 -0 -0 -0 -0 -0 -0 -0 -1 -0 -1 -1 -6 -0 -0 -0 -0 -0 -0 -0 -0 -0 -0 -0 -0 -0
-1 -0 -0 -0 -0 -0 -0 -0 -0 -0 -1 -9 -1 -1 -2 -0 -1 -0 -1 -2 -0 -0 -0 -0 -0 -0 -0 -0 -0 -0 -0 -0 -0 -0 -0 -0 -1 -3 -0 -2 -0 -0 -0 -0 -0 -0 -0 -0 -0 -0 -0 -0 -0 -0
-4 -2 -0 -0 -1 -0 -0 -0 -0 -0 -0 -3 -1 -2 -0 -0 -1 -0 -3 -0 -0 -0 -0 -0 -0 -0 -0 -0 -0 -0 -0 -0 -1 -0 -0 -1 -1 -0 -0 -0 -0 -0 -0 -0 -0 -0 -0 -0 -0 -0 -0 -0 -0 -0
-1 -1 -0 -0 -0 -0 -0 -0 -0 -0 -2 -1 -0 -0 -0 -0 -0 -5 -0 -0 -0 -3 -0 -0 -1 -1 -0 -0 -1 -1 -0 -0 -0 -0 -1 -0 -0 -0 -0 -0 -0 -0 -0 -0 -0 -0 -0 -0 -0 -0 -0 -0 -0 -0
-1 -0 -0 -0 -0 -0 -3 -0 -0 -0 -1 -2 -5 -3 -1 -13 -1 -0 -0 -0 -0 -0 -0 -0 -0 -0 -2 -0 -2 -4 -0 -0 -0 -0 -0 -0 -0 -0 -0 -0 -0 -0 -0 -0 -0 -0 -0 -0 -0 -0 -0 -0 -0 -0
-0 -0 -1 -0 -0 -0 -0 -0 -0 -0 -2 -0 -11 -2 -0 -0 -0 -0 -0 -0 -0 -0 -0 -0 -0 -0 -0 -0 -2 -1 -0 -0 -0 -1 -0 -0 -0 -0 -0 -0 -0 -0 -0 -0 -0 -0 -0 -0 -0 -0 -0 -0 -0 -0
-0 -0 -0 -1 -2 -0 -0 -1 -0 -0 -0 -0 -1 -0 -0 -0 -19 -0 -0 -0 -0 -0 -0 -0 -0 -0 -0 -0 -0 -0 -0 -1 -0 -0 -0 -0 -0 -0 -0 -0 -0 -0 -0 -0 -0 -0 -0 -0 -0 -0 -0 -0 -0 -0
-1 -0 -8 -0 -0 -1 -1 -0 -0 -0 -0 -2 -0 -0 -0 -0 -0 -0 -0 -12 -0 -0 -0 -0 -0 -0 -0 -0 -2 -0 -0 -0 -0 -0 -0 -0 -0 -0 -0 -0 -0 -0 -0 -0 -0 -0 -0 -0 -0 -0 -0 -0 -0 -0
-2 -0 -1 -3 -1 -1 -0 -0 -2 -0 -0 -0 -0 -0 -0 -0 -0 -0 -0 -0 -0 -0 -0 -0 -0 -0 -0 -0 -0 -0 -0 -0 -0 -0 -0 -0 -0 -0 -0 -0 -0 -0 -0 -0 -0 -0 -0 -0 -0 -0 -0 -0 -0 -0
-1 -0 -0 -3 -1 -0 -0 -5 -1 -0 -0 -0 -0 -0 -0 -0 -0 -0 -0 -0 -0 -0 -0 -0 -0 -0 -1 -0 -0 -0 -0 -0 -0 -0 -0 -0 -0 -0 -0 -0 -0 -0 -0 -0 -0 -0 -0 -0 -0 -0 -0 -0 -0 -0
-0 -1 -0 -0 -1 -0 -0 -0 -0 -0 -0 -0 -0 -0 -0 -0 -0 -0 -0 -0 -0 -0 -0 -0 -3 -1 -0 -0 -0 -0 -0 -0 -0 -0 -0 -0 -0 -0 -0 -0 -0 -0 -0 -0 -0 -0 -0 -0 -0 -0 -0 -0 -0 -0
-1 -0 -0 -0 -0 -0 -0 -0 -0 -0 -0 -0 -0 -0 -0 -0 -0 -0 -0 -0 -0 -0 -0 -0 -0 -0 -0 -0 -0 -0 -0 -0 -0 -0 -0 -0 -0 -0 -0 -0 -0 -0 -0 -0 -0 -0 -0 -0 -0 -0 -0 -0 -0 -0
-0 -0 -0 -2 -0 -0 -0 -0 -0 -0 -0 -0 -0 -0 -0 -0 -0 -0 -0 -0 -0 -0 -0 -0 -0 -0 -0 -0 -0 -0 -0 -0 -0 -0 -0 -0 -0 -0 -0 -0 -0 -0 -0 -0 -0 -0 -0 -0 -0 -0 -0 -0 -0 -0
-0 -0 -0 -3 -0 -0 -0 -0 -0 -0 -0 -0 -0 -0 -0 -0 -0 -0 -0 -0 -0 -0 -0 -0 -0 -0 -0 -0 -0 -0 -0 -0 -0 -0 -0 -0 -0 -0 -0 -0 -0 -0 -0 -0 -0 -0 -0 -0 -0 -0 -0 -0 -0 -0
-0 -0 -0 -0 -0 -0 -0 -0 -0 -0 -0 -0 -0 -0 -0 -0 -0 -0 -0 -0 -0 -0 -0 -0 -0 -0 -0 -0 -0 -0 -0 -0 -0 -0 -1 -1 -0 -0 -0 -0 -0 -0 -0 -0 -0 -0 -0 -0 -0 -0 -0 -0 -1 -1
-0 -0 -0 -0 -0 -0 -0 -0 -0 -0 -0 -0 -0 -0 -0 -0 -0 -0 -0 -0 -0 -0 -0 -0 -0 -0 -0 -0 -0 -0 -0 -0 -0 -0 -0 -0 -0 -0 -0 -0 -0 -0 -0 -0 -0 -0 -1 -1 -1 -1 -1 -1 -0 -0
-0 -0 -0 -0 -0 -0 -0 -0 -0 -0 -0 -0 -0 -0 -0 -0 -0 -0 -0 -0 -0 -0 -0 -0 -0 -0 -0 -0 -0 -0 -0 -0 -0 -0 -0 -0 -0 -0 -0 -0 -0 -0 -0 -0 -1 -1 -0 -0 -0 -0 -0 -1 -1 -1
-0 -0 -0 -0 -0 -0 -0 -0 -0 -0 -0 -0 -0 -0 -0 -0 -0 -0 -0 -0 -0 -0 -0 -0 -0 -0 -0 -0 -0 -0 -0 -0 -0 -0 -0 -0 -0 -0 -0 -0 -1 -1 -1 -1 -1 -1 -1 -0 -0 -0 -0 -0 -0 -1
-0 -0 -0 -0 -0 -0 -0 -0 -0 -0 -0 -0 -0 -0 -0 -0 -0 -0 -0 -0 -0 -0 -0 -0 -0 -0 -0 -0 -0 -0 -0 -0 -0 -0 -0 -0 -0 -0 -0 -0 -0 -0 -0 -1 -0 -0 -0 -0 -0 -0 -0 -0 -0 -0
-0 -0 -0 -0 -0 -0 -0 -0 -0 -0 -0 -0 -0 -0 -0 -0 -0 -0 -0 -0 -0 -0 -0 -0 -0 -0 -0 -0 -0 -0 -0 -0 -0 -0 -0 -0 -0 -0 -0 -0 -0 -0 -0 -0 -1 -0 -0 -1 -0 -0 -0 -0 -0 -0
-0 -0 -0 -0 -0 -0 -0 -0 -0 -0 -0 -0 -0 -0 -0 -0 -0 -0 -0 -0 -0 -0 -0 -0 -0 -0 -0 -0 -0 -0 -0 -0 -0 -0 -0 -0 -0 -0 -0 -0 -0 -0 -0 -0 -0 -0 -1 -1 -1 -0 -1 -0 -0 -0
-0 -0 -0 -0 -0 -0 -0 -0 -0 -0 -0 -0 -0 -0 -0 -0 -0 -0 -0 -0 -0 -0 -0 -0 -0 -0 -0 -0 -0 -0 -0 -0 -0 -0 -0 -0 -0 -0 -0 -0 -0 -0 -0 -0 -0 -0 -0 -0 -0 -0 -0 -0 -0 -0
-0 -0 -0 -0 -0 -0 -0 -0 -0 -0 -0 -0 -0 -0 -0 -0 -0 -0 -0 -0 -0 -0 -0 -0 -0 -0 -0 -0 -0 -0 -0 -0 -0 -0 -0 -0 -0 -0 -0 -0 -0 -0 -0 -0 -0 -0 -0 -0 -0 -0 -0 -0 -0 -0
-0 -0 -0 -0 -0 -0 -0 -0 -0 -0 -0 -0 -0 -0 -0 -0 -0 -0 -0 -0 -0 -0 -0 -0 -0 -0 -0 -0 -0 -0 -0 -0 -0 -0 -0 -0 -0 -0 -0 -0 -0 -0 -0 -0 -0 -0 -0 -0 -0 -0 -0 -0 -0 -0
-0 -0 -0 -0 -0 -0 -0 -0 -0 -0 -0 -0 -0 -0 -0 -0 -0 -0 -0 -0 -0 -0 -0 -0 -0 -0 -0 -0 -0 -0 -0 -0 -0 -0 -0 -0 -0 -0 -0 -0 -0 -0 -0 -0 -0 -0 -0 -0 -0 -0 -0 -0 -0 -0
-0 -0 -0 -0 -0 -0 -0 -0 -0 -0 -0 -0 -0 -0 -0 -0 -0 -0 -0 -0 -0 -0 -0 -0 -0 -0 -0 -0 -0 -0 -0 -0 -0 -0 -0 -0 -0 -0 -0 -0 -0 -0 -0 -0 -0 -0 -0 -0 -0 -0 -0 -0 -0 -0
-0 -0 -0 -0 -0 -0 -0 -0 -0 -0 -0 -0 -0 -0 -0 -0 -0 -0 -0 -0 -0 -0 -0 -0 -0 -0 -0 -0 -0 -0 -0 -0 -0 -0 -0 -0 -0 -0 -0 -0 -0 -0 -0 -0 -0 -0 -0 -0 -0 -0 -0 -0 -0 -0
Wind_Speed
32 31 31 31 29 28 24 23 21 18 15 12 11 10 11 9 8 5 9 6 7 13 14 12 12 10 10 10 13 14 17 14 15 13 16 18 19 19 21 22 21 21 21 20 21 20 21 20 18 16 22 22 19 8
32 33 32 31 31 26 25 22 21 20 17 14 13 10 10 9 8 6 11 9 9 14 17 16 13 3 3 1 9 10 13 17 16 16 17 19 22 20 22 21 18 19 22 27 25 25 26 25 22 21 21 19 18 9
31 32 34 33 31 30 26 24 22 19 16 14 13 11 11 10 8 7 10 8 11 16 21 15 11 3 1 6 3 5 12 10 16 18 20 20 21 21 21 21 22 22 25 25 29 19 22 21 20 19 16 14 11 8
28 29 31 31 28 31 31 26 23 19 16 14 12 11 11 10 8 9 10 9 11 15 16 15 15 13 10 3 4 7 7 14 19 21 23 24 23 21 20 21 20 17 21 30 26 23 23 19 20 19 16 14 12 9
26 30 31 31 29 28 31 25 22 21 19 17 15 14 12 14 11 10 13 12 11 14 16 17 25 19 6 3 4 6 9 15 27 24 24 26 25 24 22 22 20 17 19 18 18 20 17 19 19 18 16 16 15 12
27 28 33 37 32 28 34 20 21 19 17 19 18 18 16 15 11 12 18 19 9 9 16 15 16 12 12 7 6 4 5 19 23 23 25 24 26 24 22 21 17 17 18 18 14 14 14 18 17 16 14 14 14 11
26 30 33 38 39 33 23 18 18 18 17 14 15 15 17 14 13 17 17 14 0 3 15 16 13 11 11 9 9 9 10 19 20 24 26 28 27 25 26 27 23 20 18 18 17 17 16 17 17 17 16 15 13 14
31 36 38 39 38 36 22 19 20 18 14 12 12 12 12 11 15 20 12 9 2 12 14 14 11 10 9 10 10 9 9 19 21 24 24 27 26 26 26 21 19 20 19 19 19 19 19 20 18 17 17 17 17 17
37 38 40 41 35 38 25 19 20 19 13 13 12 10 11 18 18 17 7 7 13 14 14 10 9 11 10 11 12 14 12 18 20 25 26 24 26 28 23 22 21 20 20 21 21 21 20 20 19 19 19 19 19 19
38 40 43 39 32 34 21 20 22 19 16 13 14 19 20 19 11 3 11 18 21 16 13 8 7 9 9 9 11 17 12 18 18 21 15 24 28 18 19 20 21 22 23 23 22 22 21 21 20 20 19 20 20 20
41 42 45 38 32 25 21 19 26 21 18 22 23 21 14 10 15 18 23 25 18 16 5 5 20 18 21 6 20 18 18 17 19 17 17 21 22 20 18 19 20 21 21 21 20 21 21 19 19 19 19 19 19 19
46 44 35 35 31 22 23 24 29 31 28 26 19 16 18 18 21 24 24 21 19 15 7 9 7 23 23 23 19 15 18 20 19 11 17 19 16 16 16 18 19 20 21 20 20 21 20 19 19 19 19 20 20 20
40 30 36 37 34 26 21 48 31 26 24 23 22 20 20 21 25 27 27 19 15 6 8 8 17 21 23 21 20 18 16 19 17 19 16 16 13 15 17 18 18 19 19 18 19 18 19 19 20 20 20 21 21 20
33 30 31 32 38 46 45 40 32 29 26 24 24 24 22 26 25 21 23 17 12 11 6 12 15 18 22 22 20 19 17 18 20 19 16 14 12 14 16 17 17 18 18 18 18 18 19 19 19 19 19 20 19 19
37 33 31 35 37 41 43 37 29 27 23 20 21 24 23 17 16 15 12 9 11 13 11 14 18 19 21 21 19 20 18 18 17 18 15 12 13 15 17 18 18 17 17 18 18 19 19 19 19 20 20 20 20 19
36 36 36 38 37 36 28 25 26 25 18 16 18 19 17 17 14 13 11 9 15 17 17 19 20 20 22 19 20 20 20 19 16 15 13 14 15 17 18 18 18 18 19 19 19 19 19 20 20 20 20 20 20 20
37 32 43 41 37 33 28 26 26 23 20 17 18 15 16 15 14 13 14 15 17 18 23 20 22 20 16 15 17 19 20 18 12 13 14 15 16 18 19 19 19 19 20 20 20 20 20 20 20 20 21 21 21 20
31 39 43 45 35 33 27 23 23 21 19 17 18 17 15 15 14 13 14 17 18 19 21 20 18 18 20 15 14 15 14 14 14 14 15 16 17 19 20 20 20 20 20 21 21 21 21 21 21 21 21 21 20 20
38 45 48 44 37 27 23 24 21 19 16 17 17 16 15 13 13 13 13 14 14 15 13 15 16 16 16 18 16 14 14 16 15 15 16 17 18 19 21 21 21 21 21 21 21 22 22 21 21 21 21 21 21 20
39 48 47 42 27 21 20 20 19 18 20 20 19 18 15 12 11 13 14 15 14 13 14 16 16 16 15 14 15 16 17 16 14 15 17 18 18 19 20 21 21 20 21 21 21 21 21 20 20 20 20 20 20 19
42 42 34 28 24 18 18 24 21 19 20 18 21 18 15 16 15 15 15 15 14 15 14 13 12 13 14 15 17 17 17 17 17 19 18 18 18 19 20 21 21 21 21 21 21 21 21 21 20 19 19 19 18 18
32 32 26 26 22 20 18 18 20 18 17 19 20 17 17 17 17 16 16 15 15 15 13 11 11 12 13 15 16 17 17 17 17 17 17 17 18 19 20 20 20 20 20 20 20 21 20 20 19 18 18 18 17 17
27 28 24 23 21 19 19 20 20 19 19 21 20 18 17 17 16 15 13 14 14 14 13 13 13 14 14 15 16 17 18 17 17 18 18 18 19 19 19 20 21 21 21 21 20 20 20 19 19 19 18 18 18 18
16 20 21 22 20 20 20 21 20 20 20 20 19 18 17 16 15 14 14 13 14 14 14 14 14 15 15 16 17 17 18 18 18 18 19 19 19 20 20 20 21 21 21 21 21 21 20 20 20 20 20 19 19 19
24 21 20 22 20 21 21 22 22 21 20 20 19 18 17 17 16 14 14 15 16 16 15 15 15 15 15 16 17 18 18 18 18 19 20 19 19 19 20 20 21 21 22 21 21 21 21 20 20 20 20 20 19 19
24 20 21 21 22 22 22 22 22 21 20 19 18 18 18 16 15 15 16 17 17 16 15 15 15 16 16 17 16 17 18 18 18 19 20 20 20 20 19 19 19 21 22 22 21 21 20 19 19 19 19 19 19 18
22 21 20 19 20 20 20 20 21 20 21 19 19 19 17 16 15 15 15 16 16 16 16 16 16 16 16 17 18 17 17 17 19 19 18 19 19 19 18 18 19 20 21 21 20 20 20 18 17 17 17 17 17 17
20 21 23 21 20 20 21 21 22 21 19 18 18 17 16 15 15 16 15 15 16 17 17 17 17 17 17 17 17 18 18 18 18 19 19 18 18 18 18 18 19 20 20 20 19 19 19 18 17 16 16 16 16 16
20 19 19 21 20 20 20 21 20 16 13 14 14 14 14 14 15 15 16 16 16 16 15 16 16 16 17 17 16 17 15 15 16 17 18 18 17 16 18 18 19 20 21 20 20 19 18 18 17 16 16 16 16 17
20 18 18 18 18 18 16 14 10 10 10 11 12 13 14 14 13 13 15 15 15 14 14 15 15 15 15 16 16 16 16 15 15 16 17 17 16 16 17 17 18 18 19 19 19 18 18 17 16 17 16 16 16 15
16 15 13 12 11 12 9 9 9 9 9 11 11 12 13 13 13 12 12 12 13 14 14 14 14 15 15 15 16 16 17 17 18 18 18 17 17 16 16 17 17 17 17 18 18 17 17 17 17 17 17 17 17 17
13 12 9 10 8 7 9 9 9 9 9 9 9 10 11 11 11 11 11 11 12 12 12 12 13 13 14 16 16 17 18 17 17 18 18 18 17 16 16 16 17 17 18 18 18 17 16 16 16 17 17 17 18 18
10 10 9 8 6 5 5 8 9 8 7 7 7 7 8 9 9 9 9 9 10 10 11 12 14 15 15 16 17 18 18 18 18 19 19 19 19 18 17 17 17 18 18 18 18 18 17 17 17 17 17 18 18 19
Wind_Direction
259 258 256 255 255 253 248 241 228 225 234 235 242 254 247 237 207 254 301 303 319 324 326 337 337 335 338 344 344 356 349 348 342 350 321 303 294 299 283 285 281 280 278 285 288 283 264 297 278 273 268 273 265 322
257 256 255 254 252 250 255 233 217 228 234 235 244 249 236 233 199 234 299 303 308 317 327 335 341 164 185 33 351 358 343 335 332 326 299 291 281 288 294 277 306 284 296 280 277 268 272 282 273 274 274 263 262 310
258 254 253 251 249 247 238 239 228 224 226 229 237 239 233 226 207 237 291 309 307 315 316 321 331 344 173 186 158 359 341 347 313 291 280 279 271 271 272 281 294 302 310 293 285 287 288 289 287 290 276 288 287 322
256 255 250 246 245 246 239 233 228 223 222 224 227 229 226 228 220 243 279 291 303 317 327 336 329 326 346 50 151 175 173 318 287 276 261 257 255 252 242 242 246 238 289 307 288 287 292 302 291 288 302 304 306 302
255 251 245 242 240 241 238 230 219 220 224 227 229 225 234 234 233 250 275 282 297 305 331 323 297 318 348 20 85 134 150 168 223 254 253 249 246 245 238 249 230 266 294 302 301 300 291 304 297 288 295 295 302 298
251 247 241 234 233 235 232 217 215 204 207 224 228 230 230 228 218 256 270 277 291 310 314 324 326 348 359 51 88 88 102 245 254 257 249 255 247 238 243 233 270 296 300 321 282 280 307 298 301 291 294 298 304 297
246 238 234 225 221 226 215 189 187 185 199 212 222 228 228 212 227 250 271 294 196 304 292 307 341 18 30 28 3 329 307 273 269 253 249 242 247 252 253 237 262 289 297 305 308 305 281 311 288 290 281 277 293 314
233 226 222 214 211 217 204 176 177 182 190 201 223 218 208 205 242 251 290 320 59 267 290 313 1 21 55 25 2 330 314 268 266 252 260 251 255 252 240 260 282 283 271 304 308 320 313 301 296 286 280 280 297 297
219 216 208 203 207 205 199 177 167 164 181 202 202 187 209 235 240 251 263 290 271 269 288 337 28 14 16 334 317 116 135 277 274 254 254 256 249 237 254 264 274 278 272 278 283 305 308 305 297 289 289 288 285 287
207 200 196 200 203 196 183 163 156 151 176 182 188 219 228 233 238 235 259 247 245 275 296 346 47 356 35 19 4 287 315 279 281 273 297 256 247 279 289 291 285 287 287 287 282 282 288 299 299 289 285 310 295 287
190 191 191 191 188 183 165 169 144 151 173 204 211 218 236 204 230 238 230 226 247 274 23 36 180 168 206 138 192 197 241 295 285 288 275 257 256 270 292 296 305 304 308 305 301 292 291 281 276 296 303 310 310 299
173 178 176 182 185 175 150 139 139 187 196 199 204 205 206 223 228 225 222 235 250 274 40 51 187 186 200 200 187 171 207 217 267 298 265 262 280 290 301 307 312 314 313 311 328 305 299 299 288 284 290 296 300 300
164 157 176 180 183 181 160 170 186 189 189 194 199 208 219 223 216 216 217 241 262 351 50 320 240 218 206 187 195 190 167 182 226 236 275 279 292 296 302 304 315 323 328 329 327 335 331 325 326 329 325 319 321 326
166 168 172 176 176 171 173 179 184 186 192 194 207 211 214 213 220 233 233 252 279 292 9 265 256 241 216 206 216 219 207 229 190 257 286 295 334 341 324 314 324 332 335 334 331 338 338 336 337 343 347 341 346 341
166 167 166 167 170 172 174 179 186 190 195 210 213 208 217 232 241 251 260 276 284 265 285 267 253 248 231 224 247 236 247 266 280 269 303 335 345 338 326 323 329 333 336 337 338 337 337 342 342 342 341 341 341 339
164 164 169 170 171 174 176 181 188 194 212 218 216 213 224 230 244 259 280 300 277 263 262 255 248 246 227 259 254 263 263 274 308 316 324 335 336 337 328 332 335 325 324 327 330 331 333 333 334 335 336 335 334 336
167 173 168 170 172 173 176 181 187 198 207 212 214 222 230 249 261 283 286 280 271 260 241 251 242 252 293 301 296 289 288 307 338 340 337 338 336 332 326 329 332 330 325 324 326 328 328 328 327 326 329 328 330 332
171 168 166 164 169 172 181 189 190 196 205 217 216 227 240 251 279 305 297 278 265 261 256 264 280 284 282 316 326 328 331 334 332 334 334 336 336 332 330 329 329 329 328 327 328 329 329 327 325 326 328 328 329 330
165 160 158 164 169 176 185 193 201 200 212 211 209 219 241 280 315 317 294 283 290 288 293 284 294 304 307 308 317 326 328 322 329 333 335 339 340 338 336 333 331 330 329 327 326 325 326 328 326 329 330 329 324 327
162 157 157 164 184 190 194 196 207 204 200 200 199 203 237 347 333 283 272 268 281 300 305 299 304 314 323 329 328 330 329 330 334 331 332 335 337 338 336 335 334 333 332 332 331 331 329 330 333 333 332 332 328 328
167 167 176 184 190 200 199 191 195 194 184 201 179 207 230 216 228 228 239 257 303 317 338 341 347 342 340 339 338 341 338 338 334 330 331 332 335 336 336 336 336 334 332 331 330 330 330 329 331 335 335 335 336 337
174 179 185 190 196 197 201 211 206 207 219 195 198 215 206 203 209 228 239 317 343 342 358 18 11 8 359 351 348 347 348 348 347 346 345 344 339 338 338 338 338 336 335 333 331 330 329 330 333 333 333 333 335 335
175 182 191 195 195 200 199 201 200 203 194 187 192 191 188 181 175 156 108 50 36 31 35 31 22 16 15 8 5 359 357 357 355 354 352 350 349 346 344 341 339 336 334 334 333 331 330 330 330 327 329 328 326 327
197 191 191 194 195 189 195 195 201 195 186 179 177 175 173 163 136 137 114 90 75 71 62 56 47 38 29 21 16 12 9 9 8 4 0 359 355 352 349 346 343 340 337 335 333 331 329 328 327 325 324 323 323 322
183 192 198 193 203 192 187 184 187 187 186 183 175 170 160 146 142 128 112 102 97 87 77 68 59 55 51 44 39 32 24 20 16 12 10 9 5 0 356 353 350 346 343 337 334 331 330 328 327 325 324 322 321 320
185 200 194 192 192 192 188 185 185 183 178 172 169 153 145 133 125 116 109 105 100 93 84 75 67 58 52 49 45 39 31 28 21 15 13 13 10 6 3 359 354 351 351 345 341 338 336 333 331 329 328 327 326 324
192 196 204 210 205 200 195 200 192 185 175 160 148 139 131 123 114 102 88 91 89 84 78 70 65 57 54 50 44 43 41 35 27 30 33 32 28 25 19 11 4 1 358 355 353 350 347 346 344 342 340 339 338 334
210 208 193 200 204 211 190 186 178 168 159 139 123 128 118 108 97 95 90 89 87 81 72 63 57 53 51 50 49 46 43 42 39 37 37 35 32 30 22 16 10 4 2 358 357 358 359 1 359 354 349 346 346 345
218 223 220 211 212 213 208 193 167 138 90 104 101 93 87 65 76 84 89 93 89 82 73 69 62 54 48 50 48 45 48 43 35 29 26 25 27 30 23 17 11 6 2 360 359 358 360 2 6 11 7 357 350 346
240 251 250 250 248 244 264 297 340 8 24 50 52 59 66 70 62 69 85 89 88 80 71 67 66 62 55 49 46 43 42 40 36 33 29 28 32 35 30 24 18 13 8 5 3 3 4 5 7 5 5 7 8 4
269 272 281 290 310 315 352 359 355 6 17 26 38 68 72 70 70 64 75 75 75 74 69 63 56 56 54 49 46 43 41 41 39 39 39 40 41 41 38 34 30 26 20 16 11 7 5 3 4 3 2 1 360 360
288 293 307 314 333 32 13 21 17 7 17 41 55 58 65 67 82 90 90 82 79 75 67 62 56 53 54 47 48 47 45 47 44 43 43 44 45 46 46 45 44 40 33 28 27 25 20 12 7 4 3 1 359 357
304 306 317 335 352 14 23 25 19 26 21 30 42 64 64 67 60 79 92 92 82 75 68 58 49 53 54 51 53 53 51 49 48 48 50 50 49 51 51 49 46 42 39 37 35 35 34 30 21 12 6 2 0 357